CW3794 Weather Reports


Display with metric or nautical units.
time (UTC)temp
F
wind
direction
speed
MPH
gust
MPH
rain 1hr
in
rain 24hr
in
rain mn
in
humidity
%
barometer
mb
20260507063906 69 260 0.0 0.0 0.00 0.00 0.00 35 1013.2
20260507063405 69 260 0.0 0.0 0.00 0.00 0.00 35 1013.2
20260507062405 69 260 0.0 0.0 0.00 0.00 0.00 33 1013.2
20260507061905 69 260 0.0 0.0 0.00 0.00 0.00 34 1013.2
20260507061405 69 260 0.0 0.0 0.00 0.00 0.00 33 1013.2
20260507060905 69 260 0.0 0.0 0.00 0.00 0.00 33 1013.1
20260507060404 69 260 0.0 0.0 0.00 0.00 0.00 33 1012.9
20260507055405 70 260 0.0 0.0 0.00 0.00 0.00 33 1013.1
20260507054905 70 260 0.0 0.0 0.00 0.00 0.00 34 1013.1
20260507054405 70 259 0.0 0.0 0.00 0.00 0.00 34 1013.0
20260507053905 70 260 0.0 0.0 0.00 0.00 0.00 34 1013.1
20260507053405 70 260 0.0 0.0 0.00 0.00 0.00 33 1013.1
20260507052905 70 260 0.0 0.0 0.00 0.00 0.00 33 1013.1
20260507052405 70 260 0.0 0.0 0.00 0.00 0.00 33 1013.1
20260507051905 71 260 0.0 0.0 0.00 0.00 0.00 33 1013.1
20260507051405 71 261 0.0 0.0 0.00 0.00 0.00 32 1013.1
20260507050905 71 260 0.0 0.0 0.00 0.00 0.00 32 1013.1
20260507050405 71 260 0.0 0.0 0.00 0.00 0.00 32 1013.0
20260507045905 71 260 0.0 0.0 0.00 0.00 0.00 32 1013.1
20260507044905 71 260 0.0 0.0 0.00 0.00 0.00 32 1013.1
20260507044405 71 260 0.0 0.0 0.00 0.00 0.00 32 1013.1
20260507043905 71 260 0.0 0.0 0.00 0.00 0.00 32 1013.0
20260507043405 71 260 0.0 0.0 0.00 0.00 0.00 31 1013.0
20260507042905 71 260 0.0 0.0 0.00 0.00 0.00 31 1012.9
20260507041906 72 260 0.0 0.0 0.00 0.00 0.00 30 1012.7
20260507041405 73 260 0.0 0.0 0.00 0.00 0.00 30 1012.6
20260507040905 73 260 0.0 0.0 0.00 0.00 0.00 30 1012.6
20260507040405 73 260 0.0 0.0 0.00 0.00 0.00 29 1012.5
20260507035905 73 260 0.0 0.0 0.00 0.00 0.00 29 1012.5
20260507035404 74 260 0.0 0.0 0.00 0.00 0.00 29 1012.5
20260507033905 75 260 0.0 0.0 0.00 0.00 0.00 28 1012.2
20260507033405 76 260 0.0 0.0 0.00 0.00 0.00 28 1012.2
20260507032905 76 260 0.0 0.0 0.00 0.00 0.00 27 1012.1
20260507032405 77 260 0.0 0.0 0.00 0.00 0.00 27 1011.9
20260507031905 77 260 0.0 0.0 0.00 0.00 0.00 27 1011.8
20260507031404 77 260 0.0 0.0 0.00 0.00 0.00 26 1011.7
20260507030904 77 260 0.0 0.0 0.00 0.00 0.00 26 1011.6
20260507030405 78 260 0.0 0.0 0.00 0.00 0.00 26 1011.6
20260507025905 78 260 0.0 0.0 0.00 0.00 0.00 26 1011.6
20260507025405 78 260 0.0 0.0 0.00 0.00 0.00 26 1011.5
20260507024404 78 260 0.0 0.0 0.00 0.00 0.00 26 1011.5
20260507023905 78 260 0.0 0.0 0.00 0.00 0.00 26 1011.4
20260507023405 78 260 0.0 0.0 0.00 0.00 0.00 26 1011.4
20260507022905 78 260 0.0 0.0 0.00 0.00 0.00 26 1011.3
20260507022405 79 260 0.0 0.0 0.00 0.00 0.00 26 1011.2
20260507021405 79 260 0.0 0.0 0.00 0.00 0.00 26 1011.2
20260507020404 80 260 0.0 0.0 0.00 0.00 0.00 25 1011.1
20260507013905 80 260 0.0 0.0 0.00 0.00 0.00 24 1011.0
20260507013404 81 260 0.0 0.0 0.00 0.00 0.00 24 1011.0
20260507012905 81 261 0.0 0.0 0.00 0.00 0.00 24 1011.0
20260507011904 81 260 0.0 0.0 0.00 0.00 0.00 25 1010.9
20260507011405 81 261 0.0 0.0 0.00 0.00 0.00 25 1011.0
20260507010406 81 261 0.0 0.0 0.00 0.00 0.00 25 1010.9
20260507005905 81 261 0.0 0.0 0.00 0.00 0.00 24 1011.2
20260507005405 81 260 0.0 0.0 0.00 0.00 0.00 24 1011.1
20260507004404 82 261 0.0 0.0 0.00 0.00 0.00 24 1011.1
20260507003405 82 261 0.0 0.0 0.00 0.00 0.00 24 1011.2
20260507002905 82 261 0.0 0.0 0.00 0.00 0.00 24 1011.2
20260507002404 82 261 0.0 0.0 0.00 0.00 0.00 24 1011.2
20260507001905 82 261 0.0 0.0 0.00 0.00 0.00 24 1011.1
20260507001404 82 260 0.0 0.0 0.00 0.00 0.00 24 1011.1
20260507000904 82 261 0.0 0.0 0.00 0.00 0.00 24 1011.1
20260507000406 82 261 0.0 0.0 0.00 0.00 0.00 24 1011.1
20260506235904 82 261 0.0 0.0 0.00 0.00 0.00 24 1011.1
20260506234904 83 260 0.0 2.0 0.00 0.00 0.00 24 1011.2
20260506234405 83 302 0.0 0.0 0.00 0.00 0.00 24 1011.1
20260506233905 83 303 1.0 6.0 0.00 0.00 0.00 24 1011.2
20260506233404 82 275 0.0 0.0 0.00 0.00 0.00 24 1011.2
20260506232904 82 275 0.0 0.0 0.00 0.00 0.00 23 1011.2
20260506232404 83 274 0.0 0.0 0.00 0.00 0.00 24 1011.3
20260506231905 82 274 0.0 0.0 0.00 0.00 0.00 24 1011.3
20260506231404 82 275 0.0 0.0 0.00 0.00 0.00 24 1011.4
20260506230404 83 275 0.0 0.0 0.00 0.00 0.00 24 1011.5
20260506225905 83 275 0.0 0.0 0.00 0.00 0.00 24 1011.5
20260506225405 82 275 0.0 5.0 0.00 0.00 0.00 24 1011.6
20260506224405 81 266 0.0 0.0 0.00 0.00 0.00 24 1011.7
20260506223905 82 266 0.0 0.0 0.00 0.00 0.00 24 1011.7
20260506222904 82 266 0.0 0.0 0.00 0.00 0.00 24 1011.9
20260506222405 81 266 0.0 0.0 0.00 0.00 0.00 24 1012.0
20260506221905 81 266 0.0 5.0 0.00 0.00 0.00 24 1012.1
20260506221405 81 276 0.0 0.0 0.00 0.00 0.00 24 1012.1
20260506220904 81 276 0.0 1.0 0.00 0.00 0.00 24 1012.1
20260506220405 82 267 0.0 5.0 0.00 0.00 0.00 24 1012.2
20260506215905 82 263 0.0 0.0 0.00 0.00 0.00 24 1012.1
20260506215405 81 263 0.0 12.0 0.00 0.00 0.00 25 1012.2
20260506214905 81 251 0.0 0.0 0.00 0.00 0.00 25 1012.3
20260506214405 81 250 0.0 0.0 0.00 0.00 0.00 24 1012.4
20260506213905 82 250 0.0 3.0 0.00 0.00 0.00 24 1012.5
20260506213405 82 251 0.0 0.0 0.00 0.00 0.00 24 1012.6
20260506212904 82 250 0.0 0.0 0.00 0.00 0.00 25 1012.6
20260506212405 81 250 0.0 0.0 0.00 0.00 0.00 25 1012.7
20260506211905 80 250 0.0 0.0 0.00 0.00 0.00 25 1012.7
20260506211405 81 251 0.0 0.0 0.00 0.00 0.00 25 1012.9
20260506210904 80 251 0.0 1.0 0.00 0.00 0.00 25 1013.0
20260506210405 80 251 0.0 0.0 0.00 0.00 0.00 25 1013.1
20260506205905 80 250 0.0 6.0 0.00 0.00 0.00 26 1013.2
20260506205405 80 250 0.0 3.0 0.00 0.00 0.00 25 1013.3
20260506204405 79 264 0.0 0.0 0.00 0.00 0.00 26 1013.5
20260506203904 79 264 0.0 0.0 0.00 0.00 0.00 25 1013.5
20260506203405 79 264 0.0 0.0 0.00 0.00 0.00 26 1013.6
20260506202904 78 264 0.0 0.0 0.00 0.00 0.00 27 1013.8
20260506202405 78 264 0.0 0.0 0.00 0.00 0.00 26 1013.8
20260506201905 79 264 0.0 2.0 0.00 0.00 0.00 26 1013.8
20260506201405 78 287 0.0 0.0 0.00 0.00 0.00 27 1013.9
20260506200904 78 287 0.0 0.0 0.00 0.00 0.00 26 1014.0
20260506200405 79 287 0.0 1.0 0.00 0.00 0.00 26 1014.0
20260506195905 78 287 0.0 0.0 0.00 0.00 0.00 27 1014.0
20260506194905 78 267 0.0 1.0 0.00 0.00 0.00 27 1014.1
20260506193905 77 264 0.0 0.0 0.00 0.00 0.00 28 1014.2
20260506193405 76 265 0.0 0.0 0.00 0.00 0.00 28 1014.2
20260506192905 76 265 0.0 0.0 0.00 0.00 0.00 27 1014.4
20260506192404 77 265 0.0 0.0 0.00 0.00 0.00 27 1014.3
20260506191904 76 265 0.0 0.0 0.00 0.00 0.00 28 1014.3
20260506191406 76 265 0.0 0.0 0.00 0.00 0.00 27 1014.5
20260506190404 76 256 0.0 0.0 0.00 0.00 0.00 28 1014.5
20260506185905 76 255 0.0 0.0 0.00 0.00 0.00 28 1014.4
20260506185404 76 215 0.0 6.0 0.00 0.00 0.00 28 1014.4
20260506184404 75 252 0.0 0.0 0.00 0.00 0.00 28 1014.6
20260506183905 76 252 0.0 0.0 0.00 0.00 0.00 29 1014.7
20260506182405 75 252 0.0 0.0 0.00 0.00 0.00 29 1015.0
20260506181905 75 255 0.0 1.0 0.00 0.00 0.00 30 1015.0
20260506181404 75 257 0.0 0.0 0.00 0.00 0.00 30 1015.0
20260506180904 74 257 0.0 0.0 0.00 0.00 0.00 31 1015.1
20260506175905 75 257 0.0 0.0 0.00 0.00 0.00 31 1015.0
20260506175405 75 257 0.0 0.0 0.00 0.00 0.00 32 1015.0
20260506174904 74 257 0.0 0.0 0.00 0.00 0.00 32 1015.1
20260506174404 73 257 0.0 0.0 0.00 0.00 0.00 33 1015.1
20260506173904 73 257 0.0 0.0 0.00 0.00 0.00 32 1015.2
20260506173405 73 257 0.0 0.0 0.00 0.00 0.00 32 1015.2
20260506171904 73 257 0.0 0.0 0.00 0.00 0.00 33 1015.2
20260506171404 73 257 0.0 0.0 0.00 0.00 0.00 33 1015.1
20260506170904 72 257 0.0 0.0 0.00 0.00 0.00 34 1015.2
20260506170405 72 257 0.0 0.0 0.00 0.00 0.00 34 1015.3
20260506165905 72 257 0.0 0.0 0.00 0.00 0.00 34 1015.1
20260506165405 72 257 0.0 0.0 0.00 0.00 0.00 34 1015.1
20260506164405 71 257 0.0 0.0 0.00 0.00 0.00 34 1015.2
20260506163405 70 257 0.0 0.0 0.00 0.00 0.00 35 1015.0
20260506162404 70 257 0.0 0.0 0.00 0.00 0.00 35 1015.0
20260506161904 70 257 0.0 0.0 0.00 0.00 0.00 35 1014.9
20260506161405 70 257 0.0 0.0 0.00 0.00 0.00 35 1014.9
20260506160404 69 255 0.0 0.0 0.00 0.00 0.00 36 1015.1
20260506155904 69 256 0.0 0.0 0.00 0.00 0.00 36 1015.0
20260506155405 69 255 0.0 0.0 0.00 0.00 0.00 36 1015.0
20260506154904 69 255 0.0 0.0 0.00 0.00 0.00 37 1014.9
20260506153905 67 255 0.0 0.0 0.00 0.00 0.00 38 1015.1
20260506152920 67 256 0.0 0.0 0.00 0.00 0.00 37 1015.2
20260506152420 67 255 0.0 0.0 0.00 0.00 0.00 38 1015.2
20260506151926 67 256 0.0 0.0 0.00 0.00 0.00 38 1015.1
20260506151422 67 256 0.0 0.0 0.00 0.00 0.00 39 1015.2
20260506150905 66 255 0.0 0.0 0.00 0.00 0.00 39 1015.2
20260506150404 66 255 0.0 0.0 0.00 0.00 0.00 40 1015.3
20260506145904 65 256 0.0 0.0 0.00 0.00 0.00 40 1015.2
20260506145404 65 255 0.0 0.0 0.00 0.00 0.00 39 1015.2
20260506144905 66 255 0.0 0.0 0.00 0.00 0.00 39 1015.2
20260506144404 66 255 0.0 0.0 0.00 0.00 0.00 39 1015.2
20260506143906 66 255 0.0 0.0 0.00 0.00 0.00 40 1015.2
20260506142904 65 255 0.0 0.0 0.00 0.00 0.00 41 1015.2
20260506142404 65 255 0.0 0.0 0.00 0.00 0.00 42 1015.1
20260506141404 64 256 0.0 0.0 0.00 0.00 0.00 43 1015.1
20260506140905 63 255 0.0 0.0 0.00 0.00 0.00 44 1015.0
20260506140404 63 256 0.0 0.0 0.00 0.00 0.00 44 1014.9
20260506135904 62 255 0.0 0.0 0.00 0.00 0.00 45 1014.8
20260506135404 61 256 0.0 0.0 0.00 0.00 0.00 45 1014.8
20260506134906 60 255 0.0 0.0 0.00 0.00 0.00 46 1014.8
20260506134404 59 255 0.0 0.0 0.00 0.00 0.00 46 1014.8
20260506133404 58 256 0.0 0.0 0.00 0.00 0.00 48 1014.7
20260506132904 58 256 0.0 0.0 0.00 0.00 0.00 48 1014.7
20260506132404 57 255 0.0 0.0 0.00 0.00 0.00 48 1014.7
20260506131904 57 254 0.0 0.0 0.00 0.00 0.00 49 1014.5
20260506131404 57 255 0.0 0.0 0.00 0.00 0.00 49 1014.6
20260506130904 56 255 0.0 0.0 0.00 0.00 0.00 50 1014.5
20260506125904 55 255 0.0 0.0 0.00 0.00 0.00 50 1014.4
20260506125404 55 255 0.0 0.0 0.00 0.00 0.00 50 1014.3
20260506124404 55 255 0.0 0.0 0.00 0.00 0.00 51 1014.2
20260506123904 55 255 0.0 0.0 0.00 0.00 0.00 52 1014.1
20260506123404 55 255 0.0 0.0 0.00 0.00 0.00 51 1014.0
20260506122404 55 255 0.0 0.0 0.00 0.00 0.00 51 1013.9
20260506121904 55 255 0.0 0.0 0.00 0.00 0.00 52 1013.9
20260506121404 55 255 0.0 0.0 0.00 0.00 0.00 52 1013.9
20260506120904 55 255 0.0 0.0 0.00 0.00 0.00 52 1013.8
20260506115404 55 255 0.0 0.0 0.00 0.00 0.00 52 1013.6
20260506114904 56 255 0.0 0.0 0.00 0.00 0.00 52 1013.6
20260506114404 56 255 0.0 0.0 0.00 0.00 0.00 52 1013.6
20260506113905 56 255 0.0 0.0 0.00 0.00 0.00 51 1013.6
20260506113404 56 255 0.0 0.0 0.00 0.00 0.00 51 1013.5
20260506112904 56 255 0.0 0.0 0.00 0.00 0.00 50 1013.4
20260506112405 57 255 0.0 0.0 0.00 0.00 0.00 50 1013.4
20260506111404 57 255 0.0 0.0 0.00 0.00 0.00 50 1013.4
20260506110405 57 255 0.0 0.0 0.00 0.00 0.00 50 1013.4
20260506105904 57 255 0.0 0.0 0.00 0.00 0.00 49 1013.4
20260506104404 57 255 0.0 0.0 0.00 0.00 0.00 49 1013.2
20260506103904 58 255 0.0 0.0 0.00 0.00 0.00 47 1013.2
20260506103405 58 255 0.0 0.0 0.00 0.00 0.00 47 1013.1
20260506102904 58 255 0.0 0.0 0.00 0.00 0.00 46 1013.1
20260506102405 58 255 0.0 0.0 0.00 0.00 0.00 46 1013.0
20260506101904 59 255 0.0 0.0 0.00 0.00 0.00 45 1012.9
20260506100904 59 255 0.0 0.0 0.00 0.00 0.00 44 1012.8
20260506100404 60 255 0.0 0.0 0.00 0.00 0.00 45 1012.8
20260506095404 58 255 0.0 0.0 0.00 0.00 0.00 47 1012.9
20260506094905 58 255 0.0 0.0 0.00 0.00 0.00 46 1012.9
20260506094404 58 256 0.0 0.0 0.00 0.00 0.00 46 1013.0
20260506093904 58 255 0.0 0.0 0.00 0.00 0.00 46 1013.0
20260506093404 58 255 0.0 0.0 0.00 0.00 0.00 45 1012.9
20260506092904 58 255 0.0 0.0 0.00 0.00 0.00 45 1012.9
20260506091904 59 255 0.0 0.0 0.00 0.00 0.00 45 1012.7
20260506091404 59 255 0.0 0.0 0.00 0.00 0.00 45 1012.8
20260506090904 59 255 0.0 0.0 0.00 0.00 0.00 45 1012.8
20260506090404 59 255 0.0 0.0 0.00 0.00 0.00 45 1012.7
20260506085905 59 255 0.0 0.0 0.00 0.00 0.00 45 1012.8
20260506085404 59 256 0.0 0.0 0.00 0.00 0.00 45 1012.7
20260506084404 60 255 0.0 0.0 0.00 0.00 0.00 45 1012.5
20260506083904 60 255 0.0 0.0 0.00 0.00 0.00 45 1012.5
20260506083405 60 255 0.0 0.0 0.00 0.00 0.00 44 1012.5
20260506082904 60 255 0.0 0.0 0.00 0.00 0.00 44 1012.5
20260506082404 61 255 0.0 0.0 0.00 0.00 0.00 44 1012.6
20260506081904 61 255 0.0 0.0 0.00 0.00 0.00 44 1012.6
20260506081404 61 255 0.0 0.0 0.00 0.00 0.00 44 1012.6
20260506080904 61 256 0.0 0.0 0.00 0.00 0.00 44 1012.6
20260506080404 61 255 0.0 0.0 0.00 0.00 0.00 43 1012.6
20260506072405 63 256 0.0 0.0 0.00 0.00 0.00 42 1012.3
20260506071904 63 255 0.0 0.0 0.00 0.00 0.00 41 1012.2
20260506071404 64 255 0.0 0.0 0.00 0.00 0.00 40 1012.1
20260506070904 64 255 0.0 0.0 0.00 0.00 0.00 40 1012.1
20260506070404 64 255 0.0 0.0 0.00 0.00 0.00 40 1012.1